Location: Limerick
(52.6650°N, 8.6230°W)
Time: 19:48:20
(UTC+01:00)

ISS - Pass Details

Date: 24 July 2017
Orbit: 400 x 408 km, 51.6° (Epoch: 21 July)

Event Time Altitude Azimuth Distance (km) Brightness Sun altitude
Rises 04:44:13 0° 278° (W) 2,317 -0.3 -7.4°
Reaches altitude 10° 04:46:52 10° 256° (WSW) 1,455 -1.5 -7.1°
Maximum altitude 04:48:55 16° 217° (SW) 1,160 -2.2 -6.9°
Drops below altitude 10° 04:50:57 10° 178° (S) 1,452 -1.4 -6.7°
Sets 04:53:35 0° 155° (SSE) 2,308 -0.2 -6.4°
